EW3721 Weather Reports


Display with metric or nautical units.
time (UTC)temp
F
wind
direction
speed
MPH
gust
MPH
rain 1hr
in
rain 24hr
in
rain mn
in
humidity
%
barometer
mb
20260504141106 66 234 5.0 12.0 0.00 0.00 0.00 39 1012.6
20260504140105 66 166 2.0 7.0 0.00 0.00 0.00 40 1012.6
20260504130605 61 165 2.0 9.0 0.00 0.00 0.00 48 1013.2
20260504120106 48 165 1.0 3.0 0.00 0.00 0.00 79 1013.6
20260504110605 40 214 0.0 0.0 0.00 0.00 0.00 90 1013.6
20260504110106 40 214 0.0 1.0 0.00 0.00 0.00 90 1013.6
20260504100106 38 214 0.0 3.0 0.00 0.00 0.00 88 1013.2
20260504090105 39 214 0.0 0.0 0.00 0.00 0.00 87 1013.0
20260504081105 38 232 0.0 1.0 0.00 0.00 0.00 88 1012.6
20260504080605 38 232 0.0 1.0 0.00 0.00 0.00 89 1012.6
20260504070106 37 232 0.0 0.0 0.00 0.00 0.00 87 1012.4
20260504060105 38 232 0.0 0.0 0.00 0.00 0.00 84 1012.3
20260504050605 39 232 0.0 0.0 0.00 0.00 0.00 83 1012.3
20260504045605 39 232 0.0 0.0 0.00 0.00 0.00 82 1012.3
20260504045105 39 232 0.0 0.0 0.00 0.00 0.00 81 1012.3
20260504044605 39 232 0.0 0.0 0.00 0.00 0.00 81 1012.3
20260504044105 39 232 0.0 0.0 0.00 0.00 0.00 81 1012.3
20260504043605 39 232 0.0 0.0 0.00 0.00 0.00 81 1012.3
20260504043105 40 232 0.0 0.0 0.00 0.00 0.00 81 1012.3
20260504042606 40 232 0.0 0.0 0.00 0.00 0.00 81 1012.3
20260504042105 40 232 0.0 0.0 0.00 0.00 0.00 81 1012.3
20260504041105 40 232 0.0 0.0 0.00 0.00 0.00 80 1012.2
20260504040605 40 232 0.0 2.0 0.00 0.00 0.00 80 1012.2
20260504040105 40 232 0.0 2.0 0.00 0.00 0.00 80 1012.2
20260504035605 40 232 0.0 2.0 0.00 0.00 0.00 80 1012.2
20260504035105 41 232 0.0 0.0 0.00 0.00 0.00 80 1012.2
20260504034605 41 232 0.0 0.0 0.00 0.00 0.00 80 1012.1
20260504034104 41 232 0.0 0.0 0.00 0.00 0.00 79 1012.1
20260504033605 41 232 0.0 0.0 0.00 0.00 0.00 79 1012.1
20260504033105 41 232 0.0 1.0 0.00 0.00 0.00 79 1012.1
20260504032605 41 232 0.0 1.0 0.00 0.00 0.00 78 1012.0
20260504032105 41 232 0.0 1.0 0.00 0.00 0.00 77 1012.0
20260504031604 41 232 1.0 1.0 0.00 0.00 0.00 77 1012.1
20260504031105 41 232 1.0 2.0 0.00 0.00 0.00 76 1012.1
20260504030605 41 232 0.0 1.0 0.00 0.00 0.00 76 1012.1
20260504030105 41 232 0.0 1.0 0.00 0.00 0.00 77 1012.0
20260504025605 42 232 1.0 2.0 0.00 0.00 0.00 76 1011.9
20260504025107 42 232 1.0 2.0 0.00 0.00 0.00 75 1011.9
20260504024604 42 232 1.0 2.0 0.00 0.00 0.00 74 1011.9
20260504024105 42 232 1.0 2.0 0.00 0.00 0.00 74 1012.0
20260504023104 43 232 1.0 2.0 0.00 0.00 0.00 72 1012.0
20260504022605 43 232 1.0 2.0 0.00 0.00 0.00 72 1012.0
20260504022105 43 232 1.0 2.0 0.00 0.00 0.00 71 1012.0
20260504021105 44 232 1.0 1.0 0.00 0.00 0.00 69 1011.9
20260504020605 44 232 0.0 1.0 0.00 0.00 0.00 67 1011.9
20260504015605 45 232 0.0 1.0 0.00 0.00 0.00 66 1011.9
20260504014604 45 232 0.0 1.0 0.00 0.00 0.00 65 1011.8
20260504014105 45 232 0.0 1.0 0.00 0.00 0.00 64 1011.9
20260504013605 45 232 0.0 0.0 0.00 0.00 0.00 63 1011.8
20260504012105 46 232 0.0 0.0 0.00 0.00 0.00 62 1011.6
20260504011604 46 232 0.0 1.0 0.00 0.00 0.00 61 1011.5
20260504011105 46 232 0.0 1.0 0.00 0.00 0.00 62 1011.4
20260504010605 47 232 0.0 0.0 0.00 0.00 0.00 62 1011.3
20260504010105 47 232 0.0 1.0 0.00 0.00 0.00 61 1011.2
20260504005605 47 232 0.0 0.0 0.00 0.00 0.00 60 1011.2
20260504005105 48 232 0.0 0.0 0.00 0.00 0.00 59 1011.1
20260504004605 48 232 0.0 0.0 0.00 0.00 0.00 59 1011.0
20260504004104 48 232 0.0 0.0 0.00 0.00 0.00 58 1011.0
20260504003605 48 232 0.0 1.0 0.00 0.00 0.00 57 1010.9
20260504003105 49 232 0.0 0.0 0.00 0.00 0.00 55 1010.9
20260504002605 49 232 0.0 1.0 0.00 0.00 0.00 54 1010.8
20260504002104 49 232 0.0 1.0 0.00 0.00 0.00 52 1010.7
20260504001605 50 232 0.0 0.0 0.00 0.00 0.00 52 1010.7
20260504001104 50 232 0.0 0.0 0.00 0.00 0.00 51 1010.6
20260504000604 51 232 0.0 0.0 0.00 0.00 0.00 50 1010.5
20260504000104 51 232 0.0 0.0 0.00 0.00 0.00 48 1010.4
20260503235604 51 232 0.0 1.0 0.00 0.00 0.00 48 1010.3
20260503235105 52 232 0.0 1.0 0.00 0.00 0.00 47 1010.3
20260503234605 52 232 0.0 0.0 0.00 0.00 0.00 44 1010.2
20260503234104 52 232 0.0 1.0 0.00 0.00 0.00 44 1010.1
20260503233604 53 232 0.0 1.0 0.00 0.00 0.00 43 1010.1
20260503233105 53 232 0.0 1.0 0.00 0.00 0.00 42 1010.1
20260503232604 53 232 1.0 2.0 0.00 0.00 0.00 41 1010.1
20260503232105 54 232 0.0 1.0 0.00 0.00 0.00 40 1010.0
20260503231104 54 143 0.0 2.0 0.00 0.00 0.00 39 1010.0
20260503230605 54 143 0.0 1.0 0.00 0.00 0.00 38 1009.9
20260503230105 54 143 1.0 3.0 0.00 0.00 0.00 37 1009.9
20260503225605 55 138 1.0 5.0 0.00 0.00 0.00 39 1009.9
20260503225104 55 221 1.0 3.0 0.00 0.00 0.00 39 1009.8
20260503224605 55 227 1.0 3.0 0.00 0.00 0.00 36 1009.8
20260503224104 55 312 1.0 6.0 0.00 0.00 0.00 35 1009.8
20260503223604 55 148 1.0 5.0 0.00 0.00 0.00 36 1009.8
20260503222604 55 153 1.0 6.0 0.00 0.00 0.00 37 1009.7
20260503222104 56 327 0.0 3.0 0.00 0.00 0.00 37 1009.7
20260503221604 56 347 2.0 9.0 0.00 0.00 0.00 34 1009.6
20260503221104 56 224 4.0 9.0 0.00 0.00 0.00 35 1009.6
20260503220605 56 254 3.0 5.0 0.00 0.00 0.00 36 1009.7
20260503220105 56 153 3.0 8.0 0.00 0.00 0.00 34 1009.8
20260503215605 56 217 2.0 5.0 0.00 0.00 0.00 38 1009.7
20260503215105 56 217 3.0 8.0 0.00 0.00 0.00 35 1009.7
20260503214605 56 219 3.0 9.0 0.00 0.00 0.00 35 1009.7
20260503214104 56 149 3.0 10.0 0.00 0.00 0.00 37 1009.8
20260503213604 56 213 6.0 17.0 0.00 0.00 0.00 35 1009.7
20260503213104 57 222 5.0 12.0 0.00 0.00 0.00 34 1009.6
20260503212104 58 164 3.0 12.0 0.00 0.00 0.00 33 1009.7
20260503211604 58 228 4.0 10.0 0.00 0.00 0.00 33 1009.7
20260503211104 59 168 6.0 16.0 0.00 0.00 0.00 32 1009.8
20260503210604 59 212 5.0 12.0 0.00 0.00 0.00 35 1009.6
20260503210105 59 180 3.0 8.0 0.00 0.00 0.00 33 1009.7
20260503205104 58 210 2.0 12.0 0.00 0.00 0.00 38 1009.5
20260503204604 57 185 5.0 10.0 0.00 0.00 0.00 38 1009.5
20260503204104 57 204 5.0 12.0 0.00 0.00 0.00 36 1009.6
20260503203604 57 192 2.0 9.0 0.00 0.00 0.00 38 1009.5
20260503203104 57 143 4.0 10.0 0.00 0.00 0.00 35 1009.6
20260503202104 57 219 5.0 12.0 0.00 0.00 0.00 35 1009.6
20260503201605 57 181 5.0 13.0 0.00 0.00 0.00 36 1009.6
20260503200104 58 217 5.0 12.0 0.00 0.00 0.00 35 1009.6
20260503195604 58 218 6.0 17.0 0.00 0.00 0.00 38 1009.7
20260503195104 58 224 4.0 9.0 0.00 0.00 0.00 41 1009.6
20260503194604 57 166 2.0 7.0 0.00 0.00 0.00 38 1009.5
20260503194104 57 157 3.0 9.0 0.00 0.00 0.00 36 1009.6
20260503193604 57 193 1.0 10.0 0.00 0.00 0.00 39 1009.7
20260503193104 57 231 5.0 10.0 0.00 0.00 0.00 36 1009.6
20260503192605 57 231 4.0 18.0 0.00 0.00 0.00 37 1009.7
20260503192104 58 174 3.0 8.0 0.00 0.00 0.00 36 1009.6
20260503191604 58 189 3.0 12.0 0.00 0.00 0.00 39 1009.4
20260503191105 57 228 3.0 12.0 0.00 0.00 0.00 37 1009.5
20260503190604 56 200 4.0 13.0 0.00 0.00 0.00 38 1009.5
20260503185605 55 159 5.0 14.0 0.00 0.00 0.00 36 1009.5
20260503184604 55 188 5.0 16.0 0.00 0.00 0.00 40 1009.5
20260503184104 55 147 5.0 14.0 0.00 0.00 0.00 37 1009.6
20260503183605 55 200 6.0 16.0 0.00 0.00 0.00 37 1009.7
20260503183104 55 176 3.0 16.0 0.00 0.00 0.00 39 1009.7
20260503182605 55 239 3.0 13.0 0.00 0.00 0.00 36 1009.5
20260503182105 56 185 6.0 16.0 0.00 0.00 0.00 36 1009.5
20260503181605 56 206 3.0 8.0 0.00 0.00 0.00 40 1009.5
20260503181104 55 254 3.0 13.0 0.00 0.00 0.00 38 1009.3
20260503180605 54 144 4.0 9.0 0.00 0.00 0.00 42 1009.6
20260503180105 54 245 3.0 12.0 0.00 0.00 0.00 40 1009.5
20260503175104 54 136 7.0 14.0 0.00 0.00 0.00 40 1009.6
20260503174104 54 143 1.0 8.0 0.00 0.00 0.00 38 1009.8
20260503173605 54 224 4.0 9.0 0.00 0.00 0.00 39 1009.9
20260503173107 54 198 3.0 7.0 0.00 0.00 0.00 45 1009.9
20260503172605 53 149 3.0 8.0 0.00 0.00 0.00 46 1010.0
20260503172104 52 179 2.0 13.0 0.00 0.00 0.00 43 1010.1
20260503171604 52 148 5.0 14.0 0.00 0.00 0.00 45 1010.2
20260503171104 52 235 3.0 17.0 0.00 0.00 0.00 48 1010.2
20260503170604 52 220 6.0 13.0 0.00 0.00 0.00 44 1010.3
20260503170105 52 178 4.0 12.0 0.00 0.00 0.00 46 1010.3
20260503160104 54 224 6.0 12.0 0.00 0.00 0.00 47 1010.1
20260503150604 53 158 9.0 16.0 0.00 0.00 0.00 47 1009.8
20260503150105 53 207 5.0 17.0 0.00 0.00 0.00 48 1009.8